When you browse on this site, cookies collect data to enhance your experience and personalize the content and advertising you see.
Visit our Privacy Policy to learn more. By continuing to use the site, you agree to this use of cookies and data.
  • In Hungary
  • List of Countries
  • For 7 days
  • Water Temperature
  • Weather Map
  • News
  • Weather Widgets
  • user-avatar
    Login

    Hourly Weather Titovka

    Today, 25 August, Sunday

    Time Temperature Precipitation Wind Pressure Humidity
    00:00 +18°C° 0 mm 3 mps 742 mmHg 55%
    01:00 +18°C° 0 mm 4 mps 741 mmHg 55%
    02:00 +18°C° 0 mm 4 mps 741 mmHg 55%
    03:00 +18°C° 0 mm 4 mps 741 mmHg 55%
    04:00 +18°C° 0 mm 4 mps 741 mmHg 56%
    05:00 +18°C° 0 mm 4 mps 742 mmHg 59%
    06:00 +19°C° 0 mm 4 mps 742 mmHg 57%
    07:00 +20°C° 0 mm 3 mps 742 mmHg 55%
    08:00 +21°C° 0 mm 3 mps 742 mmHg 53%
    09:00 +22°C° 0 mm 3 mps 742 mmHg 52%
    10:00 +24°C° 0 mm 3 mps 742 mmHg 50%
    11:00 +25°C° 0 mm 3 mps 742 mmHg 48%
    12:00 +25°C° 0 mm 3 mps 742 mmHg 48%
    13:00 +26°C° 0 mm 3 mps 742 mmHg 47%
    14:00 +27°C° 0 mm 3 mps 742 mmHg 46%
    15:00 +26°C° 0 mm 3 mps 742 mmHg 45%
    16:00 +26°C° 0 mm 3 mps 742 mmHg 45%
    17:00 +26°C° 0 mm 3 mps 742 mmHg 44%
    18:00 +24°C° 0 mm 3 mps 742 mmHg 48%
    19:00 +21°C° 0 mm 2 mps 742 mmHg 52%
    20:00 +19°C° 0 mm 2 mps 742 mmHg 56%
    21:00 +18°C° 0 mm 2 mps 742 mmHg 56%
    22:00 +17°C° 0 mm 2 mps 742 mmHg 56%
    23:00 +18°C° 0 mm 1 mps 742 mmHg 56%

    Tomorrow, 26 August, Monday

    Time Temperature Precipitation Wind Pressure Humidity
    00:00 +16°C° 0 mm 2 mps 741 mmHg 57%
    01:00 +16°C° 0 mm 2 mps 741 mmHg 58%
    02:00 +16°C° 0 mm 2 mps 741 mmHg 59%
    03:00 +16°C° 0 mm 2 mps 741 mmHg 61%
    04:00 +15°C° 0 mm 2 mps 741 mmHg 63%
    05:00 +15°C° 0 mm 2 mps 741 mmHg 65%
    06:00 +17°C° 0 mm 2 mps 741 mmHg 61%
    07:00 +20°C° 0 mm 2 mps 741 mmHg 58%
    08:00 +23°C° 0 mm 2 mps 740 mmHg 54%
    09:00 +24°C° 0 mm 2 mps 740 mmHg 48%
    10:00 +26°C° 0 mm 2 mps 740 mmHg 42%
    11:00 +27°C° 0 mm 2 mps 740 mmHg 36%
    12:00 +28°C° 0 mm 2 mps 740 mmHg 35%
    13:00 +28°C° 0 mm 2 mps 739 mmHg 34%
    14:00 +29°C° 0 mm 2 mps 739 mmHg 33%
    15:00 +28°C° 0 mm 2 mps 739 mmHg 34%
    16:00 +28°C° 0 mm 3 mps 739 mmHg 35%
    17:00 +28°C° 0 mm 3 mps 738 mmHg 36%
    18:00 +26°C° 0 mm 3 mps 738 mmHg 42%
    19:00 +22°C° 0 mm 3 mps 738 mmHg 49%
    20:00 +20°C° 0 mm 3 mps 737 mmHg 55%
    21:00 +20°C° 0 mm 3 mps 737 mmHg 61%
    22:00 +19°C° 0 mm 3 mps 736 mmHg 66%
    23:00 +18°C° 0 mm 3 mps 736 mmHg 72%

    Day after tomorrow, 27 August, Tuesday

    Time Temperature Precipitation Wind Pressure Humidity
    00:00 +18°C° 0 mm 3 mps 735 mmHg 73%
    01:00 +18°C° 0 mm 3 mps 735 mmHg 75%
    02:00 +17°C° 0 mm 3 mps 734 mmHg 77%
    03:00 +17°C° 0 mm 3 mps 734 mmHg 74%
    04:00 +17°C° 0 mm 3 mps 734 mmHg 71%
    05:00 +17°C° 0 mm 3 mps 734 mmHg 68%
    06:00 +20°C° 0 mm 3 mps 733 mmHg 60%
    07:00 +22°C° 0 mm 4 mps 733 mmHg 51%
    08:00 +25°C° 0 mm 4 mps 733 mmHg 43%
    09:00 +28°C° 0 mm 5 mps 733 mmHg 36%
    10:00 +30°C° 0 mm 6 mps 733 mmHg 28%
    11:00 +34°C° 0 mm 6 mps 733 mmHg 21%
    12:00 +34°C° 0 mm 7 mps 733 mmHg 21%
    13:00 +34°C° 0 mm 7 mps 733 mmHg 21%
    14:00 +34°C° 0 mm 7 mps 733 mmHg 21%
    15:00 +32°C° 0 mm 7 mps 734 mmHg 29%
    16:00 +29°C° 0 mm 7 mps 734 mmHg 37%
    17:00 +26°C° 0 mm 7 mps 734 mmHg 46%
    18:00 +23°C° 0 mm 6 mps 735 mmHg 46%
    19:00 +21°C° 0 mm 5 mps 735 mmHg 47%
    20:00 +19°C° 0 mm 4 mps 736 mmHg 48%
    21:00 +18°C° 0 mm 3 mps 737 mmHg 52%
    22:00 +16°C° 0 mm 3 mps 737 mmHg 56%
    23:00 +15°C° 0 mm 2 mps 738 mmHg 60%

    28 August, Wednesday

    Time Temperature Precipitation Wind Pressure Humidity
    00:00 +14°C° 0 mm 2 mps 738 mmHg 63%
    01:00 +13°C° 0 mm 2 mps 738 mmHg 66%
    02:00 +12°C° 0 mm 2 mps 739 mmHg 69%
    03:00 +12°C° 0 mm 2 mps 739 mmHg 70%
    04:00 +10°C° 0 mm 2 mps 739 mmHg 72%
    05:00 +10°C° 0 mm 2 mps 740 mmHg 73%
    06:00 +13°C° 0 mm 2 mps 740 mmHg 65%
    07:00 +15°C° 0 mm 2 mps 740 mmHg 56%
    08:00 +16°C° 0 mm 2 mps 740 mmHg 47%
    09:00 +18°C° 0 mm 2 mps 740 mmHg 42%
    10:00 +19°C° 0 mm 2 mps 740 mmHg 37%
    11:00 +21°C° 0 mm 2 mps 740 mmHg 32%
    12:00 +23°C° 0 mm 2 mps 740 mmHg 30%
    13:00 +24°C° 0 mm 2 mps 740 mmHg 27%
    14:00 +25°C° 0 mm 2 mps 739 mmHg 25%
    15:00 +24°C° 0 mm 2 mps 739 mmHg 26%
    16:00 +24°C° 0 mm 2 mps 739 mmHg 26%
    17:00 +24°C° 0 mm 2 mps 739 mmHg 27%
    18:00 +21°C° 0 mm 3 mps 739 mmHg 33%
    19:00 +18°C° 0 mm 3 mps 738 mmHg 39%
    20:00 +16°C° 0 mm 3 mps 738 mmHg 45%
    21:00 +16°C° 0 mm 3 mps 738 mmHg 48%
    22:00 +14°C° 0 mm 3 mps 738 mmHg 51%
    23:00 +14°C° 0 mm 4 mps 737 mmHg 53%

    29 August, Thursday

    Time Temperature Precipitation Wind Pressure Humidity
    00:00 +14°C° 0 mm 3 mps 737 mmHg 54%
    01:00 +14°C° 0 mm 3 mps 737 mmHg 55%
    02:00 +14°C° 0 mm 3 mps 736 mmHg 56%
    03:00 +13°C° 0.1 mm 3 mps 736 mmHg 60%
    04:00 +13°C° 0.1 mm 4 mps 736 mmHg 64%
    05:00 +13°C° 0.1 mm 4 mps 735 mmHg 67%
    06:00 +15°C° 0 mm 4 mps 735 mmHg 65%
    07:00 +17°C° 0 mm 5 mps 735 mmHg 63%
    08:00 +19°C° 0 mm 5 mps 734 mmHg 61%
    09:00 +22°C° 0 mm 4 mps 734 mmHg 54%
    10:00 +25°C° 0 mm 4 mps 734 mmHg 48%
    11:00 +27°C° 0 mm 3 mps 733 mmHg 41%
    12:00 +30°C° 0 mm 3 mps 733 mmHg 35%
    13:00 +33°C° 0 mm 3 mps 733 mmHg 29%
    14:00 +35°C° 0 mm 3 mps 732 mmHg 23%
    15:00 +34°C° 0 mm 4 mps 732 mmHg 25%
    16:00 +33°C° 0 mm 4 mps 732 mmHg 27%
    17:00 +32°C° 0 mm 4 mps 732 mmHg 29%
    18:00 +28°C° 0 mm 4 mps 732 mmHg 37%
    19:00 +25°C° 0 mm 3 mps 732 mmHg 46%
    20:00 +21°C° 0 mm 3 mps 733 mmHg 54%
    21:00 +21°C° 0 mm 3 mps 733 mmHg 54%
    22:00 +20°C° 0 mm 3 mps 733 mmHg 54%
    23:00 +19°C° 0 mm 3 mps 733 mmHg 54%

    30 August, Friday

    Time Temperature Precipitation Wind Pressure Humidity
    00:00 +18°C° 0 mm 3 mps 732 mmHg 53%
    01:00 +18°C° 0 mm 3 mps 732 mmHg 51%
    02:00 +18°C° 0 mm 4 mps 732 mmHg 49%
    03:00 +19°C° 0 mm 4 mps 732 mmHg 47%
    04:00 +20°C° 0 mm 5 mps 732 mmHg 44%
    05:00 +20°C° 0 mm 6 mps 731 mmHg 42%
    06:00 +23°C° 0 mm 6 mps 731 mmHg 34%
    07:00 +27°C° 0 mm 7 mps 731 mmHg 27%
    08:00 +29°C° 0 mm 8 mps 731 mmHg 19%
    09:00 +32°C° 0 mm 8 mps 731 mmHg 17%
    10:00 +34°C° 0 mm 9 mps 731 mmHg 15%
    11:00 +37°C° 0 mm 9 mps 731 mmHg 13%
    12:00 +37°C° 0 mm 9 mps 731 mmHg 14%
    13:00 +37°C° 0 mm 8 mps 730 mmHg 14%
    14:00 +35°C° 0 mm 7 mps 730 mmHg 15%
    15:00 +33°C° 0 mm 6 mps 729 mmHg 18%
    16:00 +30°C° 0 mm 6 mps 729 mmHg 22%
    17:00 +27°C° 0 mm 6 mps 729 mmHg 25%
    18:00 +25°C° 0 mm 4 mps 729 mmHg 29%
    19:00 +22°C° 0 mm 3 mps 730 mmHg 33%
    20:00 +19°C° 0 mm 2 mps 730 mmHg 37%
    21:00 +19°C° 0 mm 2 mps 731 mmHg 37%
    22:00 +18°C° 0 mm 3 mps 731 mmHg 36%
    23:00 +18°C° 0 mm 4 mps 732 mmHg 36%
    Show more